Showing default

TIGRISAT, 40043

Orbit data source: Space-Track

TIGRISAT, 40043 is an Iraqi payload satellite in SSO that was launched on Thu, 19 Jun 2014 UTC via a DNEPR launch vehicle from the Orenburg, Russia (OREN). Payload-class satellites include a variety of spacecraft equipped with specific instruments for various scientific and technological missions. These include communications satellites like Starlink; space stations such as the ISS; scientific satellites like the Hubble; Earth observation satellites from companies like Planet Labs, Umbra, and HawkEye 360; GPS; miniature CubeSats for education and research; and military/defense satellites.

Loading next visibility...
Identifier
40043, 2014-033AK
Orbit
SSO
Country
Flag of UnknownUnknown / IRAQ
Related business
Manufacturer
Roma La Sapienza
Mission
Operational Civil Technology
Bus & Motor
CUBESAT 3U, Unknown motor
Mass
3.6 kg wet, 3.6 kg dry
Launch date (UTC)
2014-06-19 (11 years ago)
Launch vehicle
DNEPR
Launch site
Orenburg, Russia (OREN)
Object type
Payload
Rocket body
Debris
Shape & HBR
Box, 0.1 m
Radar Cross Section
0.075 m², Small (<0.1 m²)

Expand to show TLE details & history
Last TLE update: 20 hours ago

TLE from 20 hours ago
0 TIGRISAT
1 40043U 14033AK  25242.16937369  .00003387  00000-0  41158-3 0  9994
2 40043  97.7462  34.8876 0050034 309.8007  49.8807 14.83277967602450
Epoch: 2025-08-30T04:03Z
TLE epoch observation values (Epoch: 2025-08-30T04:03:53.886Z)
Latitude
-0.00008°
Longitude
-4.69444°
Altitude
599.566 km
Speed
7.572 km/s
True Right ascension
02h 19m 33s
True Declination
0° 00' 00"
Sunlit
Object was in full shadow at epoch
Visualization orbit readout
Latitude
Unknown
Longitude
Unknown
Altitude
Unknown
Speed
Unknown
Apparent Right ascension
Unknown
Apparent Declination
Unknown
Sunlit
N/A
Visualization observer readout
Local Sidereal Time
16:02:57
Azimuth
Unknown
Elevation
Unknown
Doppler factor
Unknown
Orbital elements
Apogee altitude
651.02 km
Perigee altitude
581.031 km
Semi-major axis
6,994.163 km
Eccentricity
0.005
Inclination
97.7462°
RAAN
34.8876°
Arg. of periapsis
309.8007°
True anomaly
50.32091°
Mean anomaly
49.8807°
Eccentric anomaly
50.10063°
Mean motion
3.71056 °/min
Orbital period
97.02 mins
BSTAR
0.00041158
Loading maneuver chart data...
Computing Atmospheric mass density...
Loading historical data...
Loading historical data...
Loading historical data...
Loading historical data...
Loading historical data...
Loading historical data...
Loading historical data...

Documentation

Showing up to 5 results
|